W1JAB Weather Reports


Display with metric or nautical units.
time (UTC)temp
F
wind
direction
speed
MPH
gust
MPH
rain 1hr
in
rain 24hr
in
rain mn
in
humidity
%
barometer
mb
20260507060323 53 301 5.0 9.0 0.00 0.21 0.00 82 1006.8
20260507055816 53 306 2.0 9.0 0.00 0.21 0.00 82 1006.8
20260507055333 53 296 3.0 9.0 0.00 0.21 0.00 82 1007.1
20260507054852 53 288 4.0 12.0 0.00 0.21 0.00 82 1007.2
20260507054414 53 313 4.0 10.0 0.00 0.21 0.00 82 1007.3
20260507053849 53 311 3.0 10.0 0.00 0.21 0.00 81 1007.2
20260507053323 53 296 5.0 10.0 0.00 0.21 0.00 82 1007.0
20260507052820 53 295 6.0 10.0 0.00 0.21 0.00 82 1007.2
20260507052318 53 261 3.0 9.0 0.00 0.21 0.00 82 1007.4
20260507051834 53 275 5.0 9.0 0.00 0.21 0.00 82 1007.3
20260507051352 53 336 3.0 10.0 0.00 0.21 0.00 82 1007.1
20260507050828 53 321 2.0 10.0 0.00 0.21 0.00 82 1006.9
20260507050325 53 313 4.0 8.0 0.00 0.21 0.00 83 1006.8
20260507045820 53 320 4.0 12.0 0.00 0.21 0.00 83 1007.1
20260507045338 54 310 4.0 12.0 0.00 0.21 0.00 83 1006.9
20260507044834 54 303 5.0 9.0 0.00 0.21 0.00 83 1006.9
20260507044417 54 282 4.0 11.0 0.00 0.21 0.00 84 1006.8
20260507043851 54 301 6.0 13.0 0.00 0.21 0.00 84 1006.8
20260507043345 54 312 5.0 13.0 0.00 0.21 0.00 85 1007.0
20260507042841 54 286 6.0 12.0 0.00 0.21 0.00 85 1007.0
20260507042318 55 267 5.0 11.0 0.00 0.21 0.00 86 1007.3
20260507041901 55 315 6.0 11.0 0.00 0.21 0.00 86 1007.2
20260507041358 55 290 5.0 9.0 0.00 0.21 0.00 87 1007.1
20260507040901 55 307 4.0 8.0 0.00 0.21 0.00 87 1006.8
20260507040422 55 325 3.0 12.0 0.00 0.21 0.00 87 1006.7
20260507035917 56 294 4.0 12.0 0.00 0.21 0.00 88 1006.6
20260507035333 56 293 4.0 11.0 0.00 0.21 0.21 88 1006.6
20260507034911 57 309 6.0 11.0 0.00 0.21 0.21 88 1006.5
20260507034414 57 270 4.0 11.0 0.00 0.21 0.21 89 1006.3
20260507033828 58 301 4.0 10.0 0.00 0.21 0.21 89 1006.3
20260507033413 58 318 3.0 8.0 0.00 0.21 0.21 89 1006.2
20260507032829 58 300 3.0 13.0 0.00 0.21 0.21 89 1006.1
20260507032327 58 302 7.0 20.0 0.00 0.21 0.21 89 1006.2
20260507031909 58 305 8.0 20.0 0.00 0.21 0.21 89 1006.1
20260507031324 59 319 9.0 14.0 0.00 0.21 0.21 89 1006.2
20260507030841 60 325 4.0 9.0 0.00 0.21 0.21 90 1005.9
20260507030338 60 253 2.0 9.0 0.00 0.21 0.21 90 1005.7
20260507025832 60 226 3.0 8.0 0.00 0.21 0.21 90 1005.7
20260507025329 60 195 3.0 8.0 0.00 0.21 0.21 90 1005.7
20260507024828 60 185 2.0 7.0 0.00 0.21 0.21 90 1005.7
20260507024345 60 262 2.0 8.0 0.00 0.21 0.21 90 1005.7
20260507023821 60 174 3.0 8.0 0.00 0.21 0.21 90 1005.7
20260507023405 60 211 3.0 9.0 0.00 0.21 0.21 90 1005.6
20260507022822 60 186 5.0 9.0 0.00 0.21 0.21 90 1005.5
20260507022335 60 173 3.0 8.0 0.00 0.21 0.21 90 1005.5
20260507021853 60 188 3.0 9.0 0.00 0.21 0.21 90 1005.7
20260507021330 60 195 5.0 9.0 0.00 0.21 0.21 90 1005.5
20260507020847 60 217 6.0 9.0 0.00 0.21 0.21 90 1005.7
20260507020341 60 170 3.0 8.0 0.00 0.21 0.21 90 1005.7
20260507015817 60 192 5.0 10.0 0.00 0.21 0.21 90 1005.7
20260507015357 60 271 4.0 10.0 0.01 0.21 0.21 90 1005.8
20260507014853 60 253 3.0 8.0 0.01 0.21 0.21 90 1006.0
20260507014352 60 182 3.0 10.0 0.01 0.21 0.21 90 1005.9
20260507013849 60 206 4.0 7.0 0.01 0.21 0.21 90 1005.9
20260507013325 60 172 5.0 9.0 0.01 0.21 0.21 90 1005.9
20260507012823 60 161 3.0 8.0 0.01 0.21 0.21 90 1005.9
20260507012339 60 190 4.0 8.0 0.01 0.21 0.21 90 1005.9
20260507011857 60 233 3.0 9.0 0.01 0.21 0.21 90 1006.0
20260507011332 60 209 4.0 10.0 0.01 0.21 0.21 90 1005.9
20260507010829 60 197 6.0 12.0 0.01 0.21 0.21 90 1006.1
20260507010322 60 177 6.0 10.0 0.01 0.21 0.21 90 1006.0
20260507005819 60 192 6.0 10.0 0.01 0.21 0.21 90 1006.0
20260507005317 60 176 3.0 10.0 0.00 0.20 0.20 90 1006.0
20260507004833 60 232 5.0 8.0 0.00 0.20 0.20 90 1005.8
20260507004330 60 195 4.0 9.0 0.00 0.20 0.20 90 1005.9
20260507003827 60 223 4.0 10.0 0.00 0.20 0.20 90 1005.9
20260507003324 60 165 4.0 11.0 0.01 0.20 0.20 90 1005.9
20260507002822 60 167 5.0 10.0 0.02 0.20 0.20 90 1005.8
20260507002319 60 195 5.0 10.0 0.03 0.20 0.20 90 1005.7
20260507001839 60 207 5.0 10.0 0.03 0.20 0.20 90 1005.7
20260507001358 60 197 6.0 10.0 0.03 0.20 0.20 90 1005.8
20260507000901 60 193 6.0 10.0 0.03 0.20 0.20 90 1005.7
20260507000335 60 178 6.0 10.0 0.04 0.20 0.20 90 1005.8
20260506235831 60 191 5.0 12.0 0.04 0.20 0.20 90 1005.8
20260506235417 60 177 5.0 12.0 0.04 0.20 0.20 90 1005.6
20260506234831 60 177 5.0 9.0 0.04 0.20 0.20 90 1005.7
20260506234348 60 209 5.0 9.0 0.04 0.20 0.20 90 1005.6
20260506233846 60 190 6.0 11.0 0.05 0.20 0.20 90 1005.8
20260506233321 60 157 7.0 11.0 0.04 0.19 0.19 90 1005.7
20260506232905 60 161 5.0 15.0 0.03 0.18 0.18 90 1005.7
20260506232318 60 191 8.0 15.0 0.02 0.17 0.17 90 1005.7
20260506231901 60 170 9.0 11.0 0.02 0.17 0.17 90 1005.8
20260506231419 60 129 8.0 10.0 0.03 0.17 0.17 90 1005.8
20260506230854 60 176 7.0 10.0 0.03 0.17 0.17 90 1006.0
20260506230327 60 185 6.0 11.0 0.02 0.16 0.16 90 1005.9
20260506225844 60 170 5.0 11.0 0.03 0.16 0.16 89 1005.9
20260506225408 60 180 6.0 11.0 0.03 0.16 0.16 90 1005.8
20260506224840 60 176 7.0 10.0 0.03 0.16 0.16 90 1006.0
20260506224316 61 168 7.0 11.0 0.03 0.16 0.16 89 1006.0
20260506223833 61 188 4.0 12.0 0.02 0.15 0.15 89 1006.0
20260506223350 61 200 7.0 12.0 0.02 0.15 0.15 89 1006.0
20260506222828 61 174 5.0 10.0 0.03 0.15 0.15 89 1006.1
20260506222326 61 146 5.0 10.0 0.03 0.15 0.15 89 1006.0
20260506221910 61 186 6.0 9.0 0.03 0.15 0.15 89 1006.3
20260506221325 61 187 5.0 12.0 0.03 0.14 0.14 89 1006.3
20260506220904 61 157 5.0 12.0 0.03 0.14 0.14 89 1006.3
20260506220318 61 132 6.0 10.0 0.03 0.14 0.14 89 1006.4
20260506215834 61 176 5.0 10.0 0.04 0.14 0.14 89 1006.3
20260506215330 61 190 6.0 14.0 0.03 0.13 0.13 88 1006.4
20260506214848 61 178 8.0 14.0 0.03 0.13 0.13 88 1006.4
20260506214344 61 182 8.0 13.0 0.04 0.13 0.13 88 1006.4
20260506213839 62 159 5.0 7.0 0.04 0.13 0.13 88 1006.5
20260506213358 62 195 5.0 8.0 0.05 0.13 0.13 88 1006.5
20260506212834 62 170 5.0 8.0 0.04 0.12 0.12 88 1006.6
20260506212332 62 171 6.0 10.0 0.04 0.12 0.12 88 1006.7
20260506211830 62 173 6.0 9.0 0.05 0.12 0.12 87 1006.8
20260506211348 62 181 6.0 10.0 0.05 0.11 0.11 87 1006.9
20260506210822 62 147 5.0 11.0 0.07 0.11 0.11 87 1006.9
20260506210318 62 159 6.0 11.0 0.07 0.11 0.11 87 1007.0
20260506205834 62 178 7.0 11.0 0.06 0.10 0.10 87 1007.0
20260506205351 62 181 5.0 9.0 0.06 0.10 0.10 86 1006.9
20260506204827 63 144 5.0 10.0 0.06 0.10 0.10 86 1007.0
20260506204344 63 189 8.0 14.0 0.06 0.09 0.09 86 1007.0
20260506203842 63 178 6.0 12.0 0.06 0.09 0.09 86 1006.9
20260506203338 63 174 7.0 12.0 0.06 0.08 0.08 85 1007.0
20260506202829 63 213 6.0 12.0 0.06 0.08 0.08 85 1006.9
20260506202327 63 246 4.0 12.0 0.06 0.07 0.07 85 1006.9
20260506201824 63 201 5.0 14.0 0.06 0.07 0.07 84 1006.8
20260506201322 63 174 6.0 14.0 0.06 0.06 0.06 84 1006.9
20260506200905 64 180 6.0 8.0 0.04 0.04 0.04 84 1006.8
20260506200318 64 182 2.0 7.0 0.04 0.04 0.04 83 1006.9
20260506195815 64 167 4.0 10.0 0.04 0.04 0.04 83 1006.6
20260506195333 64 194 4.0 10.0 0.04 0.04 0.04 83 1006.6
20260506194828 64 182 4.0 11.0 0.04 0.04 0.04 83 1006.8
20260506194347 64 178 4.0 11.0 0.03 0.03 0.03 83 1006.8
20260506193821 65 149 3.0 7.0 0.03 0.03 0.03 83 1006.7
20260506193407 65 185 3.0 4.0 0.02 0.02 0.02 82 1006.7
20260506192821 65 261 1.0 3.0 0.02 0.02 0.02 81 1007.1
20260506192340 66 263 0.0 3.0 0.01 0.01 0.01 81 1007.0
20260506191836 66 263 0.0 3.0 0.01 0.01 0.01 79 1007.1
20260506191354 67 263 1.0 3.0 0.00 0.00 0.00 76 1006.9
20260506190829 68 262 2.0 6.0 0.00 0.00 0.00 73 1007.3
20260506190344 68 303 3.0 6.0 0.00 0.00 0.00 71 1007.0
20260506185819 69 320 2.0 5.0 0.00 0.00 0.00 69 1006.8
20260506185336 69 212 1.0 7.0 0.00 0.00 0.00 68 1007.0
20260506184915 69 189 2.0 7.0 0.00 0.00 0.00 67 1006.9
20260506184352 69 182 4.0 8.0 0.00 0.00 0.00 67 1006.9
20260506183829 70 181 5.0 12.0 0.00 0.00 0.00 65 1007.0
20260506183325 70 187 6.0 17.0 0.00 0.00 0.00 63 1006.9
20260506182843 70 186 10.0 17.0 0.00 0.00 0.00 64 1006.8
20260506182339 71 170 9.0 18.0 0.00 0.00 0.00 63 1006.9
20260506181904 71 162 5.0 13.0 0.00 0.00 0.00 62 1006.8
20260506181400 72 213 6.0 12.0 0.00 0.00 0.00 60 1006.8
20260506180836 72 172 6.0 12.0 0.00 0.00 0.00 60 1006.9
20260506180353 73 295 5.0 15.0 0.00 0.00 0.00 59 1006.9
20260506175828 73 199 8.0 16.0 0.00 0.00 0.00 60 1007.0
20260506175345 73 178 9.0 20.0 0.00 0.00 0.00 58 1006.9
20260506174821 73 177 9.0 20.0 0.00 0.00 0.00 58 1006.9
20260506174337 73 228 7.0 14.0 0.00 0.00 0.00 58 1007.0
20260506173833 73 134 10.0 17.0 0.00 0.00 0.00 57 1006.9
20260506173329 74 145 9.0 17.0 0.00 0.00 0.00 58 1006.8
20260506172828 74 219 4.0 14.0 0.00 0.00 0.00 56 1006.9
20260506172345 73 160 8.0 14.0 0.00 0.00 0.00 57 1007.1
20260506171820 73 201 9.0 18.0 0.00 0.00 0.00 57 1007.2
20260506171318 73 175 5.0 21.0 0.00 0.00 0.00 57 1007.3
20260506170918 73 190 8.0 21.0 0.00 0.00 0.00 58 1007.3
20260506170352 73 194 7.0 18.0 0.00 0.00 0.00 58 1007.3
20260506165848 72 206 6.0 18.0 0.00 0.00 0.00 59 1007.4
20260506165345 72 151 8.0 15.0 0.00 0.00 0.00 60 1007.5
20260506164820 72 199 6.0 14.0 0.00 0.00 0.00 61 1007.7
20260506164338 72 221 4.0 12.0 0.00 0.00 0.00 62 1007.7
20260506163901 72 174 5.0 14.0 0.00 0.00 0.00 63 1007.7
20260506163424 72 183 8.0 15.0 0.00 0.00 0.00 62 1007.9
20260506162859 72 170 7.0 14.0 0.00 0.00 0.00 62 1007.8
20260506162355 72 180 6.0 14.0 0.00 0.00 0.00 63 1007.9
20260506161830 71 124 6.0 14.0 0.00 0.00 0.00 63 1008.1
20260506161327 71 192 7.0 17.0 0.00 0.00 0.00 64 1008.1
20260506160824 71 147 9.0 17.0 0.00 0.00 0.00 63 1008.4
20260506160357 71 158 7.0 16.0 0.00 0.00 0.00 63 1008.4
20260506155832 71 174 8.0 15.0 0.00 0.00 0.00 64 1008.5
20260506155350 71 199 10.0 16.0 0.00 0.00 0.00 63 1008.6
20260506154847 71 168 9.0 16.0 0.00 0.00 0.00 63 1008.7
20260506154346 71 126 7.0 14.0 0.00 0.00 0.00 64 1008.8
20260506153840 71 184 7.0 13.0 0.00 0.00 0.00 64 1009.0
20260506153317 71 176 9.0 16.0 0.00 0.00 0.00 64 1009.1
20260506152902 71 167 9.0 16.0 0.00 0.00 0.00 64 1009.1
20260506152318 70 201 9.0 16.0 0.00 0.00 0.00 64 1009.4
20260506151817 70 163 9.0 18.0 0.00 0.00 0.00 64 1009.0
20260506151333 70 192 6.0 12.0 0.00 0.00 0.00 64 1009.0
20260506150852 70 210 8.0 15.0 0.00 0.00 0.00 65 1009.2
20260506150413 70 157 7.0 15.0 0.00 0.00 0.00 65 1009.4
20260506145848 70 189 4.0 12.0 0.00 0.00 0.00 65 1009.4
20260506145323 70 191 6.0 12.0 0.00 0.00 0.00 66 1009.3
20260506144923 69 202 7.0 18.0 0.00 0.00 0.00 66 1009.3
20260506144358 70 144 7.0 18.0 0.00 0.00 0.00 66 1009.2
20260506143854 69 138 5.0 14.0 0.00 0.00 0.00 67 1009.2
20260506143329 69 261 4.0 15.0 0.00 0.00 0.00 66 1009.2
20260506142828 69 253 5.0 17.0 0.00 0.00 0.00 67 1009.1
20260506142344 69 165 10.0 14.0 0.00 0.00 0.00 67 1008.9
20260506141841 69 265 7.0 17.0 0.00 0.00 0.00 68 1008.9
20260506141359 69 176 6.0 17.0 0.00 0.00 0.00 69 1009.1
20260506140857 68 227 8.0 17.0 0.00 0.00 0.00 69 1009.1
20260506140331 68 165 6.0 16.0 0.00 0.00 0.00 69 1009.1
20260506135827 67 210 7.0 15.0 0.00 0.00 0.00 70 1009.0
20260506135343 67 206 9.0 15.0 0.00 0.00 0.00 70 1009.2
20260506134819 67 184 5.0 11.0 0.00 0.00 0.00 70 1009.4
20260506134403 67 203 7.0 18.0 0.00 0.00 0.00 70 1009.4
20260506133816 67 201 6.0 14.0 0.00 0.00 0.00 70 1009.5
20260506133334 67 245 7.0 14.0 0.00 0.00 0.00 70 1009.6
20260506132847 66 191 4.0 12.0 0.00 0.00 0.00 71 1009.6
20260506132323 66 257 6.0 13.0 0.00 0.00 0.00 71 1009.6
20260506131839 66 175 5.0 13.0 0.00 0.00 0.00 70 1009.5
20260506131358 66 233 6.0 17.0 0.00 0.00 0.00 70 1009.4
20260506130834 66 181 11.0 17.0 0.00 0.00 0.00 70 1009.7
20260506130330 66 189 7.0 12.0 0.00 0.00 0.00 70 1009.6
20260506125914 66 205 5.0 13.0 0.00 0.00 0.00 70 1009.7
20260506125330 66 191 6.0 13.0 0.00 0.00 0.00 71 1009.6
20260506124847 66 145 8.0 12.0 0.00 0.00 0.00 71 1009.4
20260506124322 66 154 7.0 13.0 0.00 0.00 0.00 71 1009.4
20260506123839 66 177 7.0 13.0 0.00 0.00 0.00 71 1009.6
20260506123337 66 178 5.0 13.0 0.00 0.00 0.00 71 1009.7
20260506122853 65 162 4.0 13.0 0.00 0.00 0.00 72 1009.7
20260506122330 65 202 7.0 12.0 0.00 0.00 0.00 72 1009.7
20260506121826 65 203 5.0 12.0 0.00 0.00 0.00 72 1009.8
20260506121322 65 176 4.0 12.0 0.00 0.00 0.00 72 1009.7
20260506120906 65 169 3.0 11.0 0.00 0.00 0.00 72 1009.7
20260506120337 64 169 4.0 11.0 0.00 0.00 0.00 72 1009.8
20260506115853 64 186 5.0 10.0 0.00 0.00 0.00 73 1009.8
20260506115329 64 144 7.0 15.0 0.00 0.00 0.00 73 1009.8
20260506114842 64 170 6.0 15.0 0.00 0.00 0.00 73 1009.9
20260506114407 64 172 7.0 13.0 0.00 0.00 0.00 73 1009.9
20260506113842 64 144 5.0 12.0 0.00 0.00 0.00 73 1010.0
20260506113359 64 153 6.0 11.0 0.00 0.00 0.00 73 1010.0
20260506112834 64 267 5.0 14.0 0.00 0.00 0.00 73 1010.0
20260506112352 64 191 7.0 14.0 0.00 0.00 0.00 73 1010.0
20260506111828 64 217 4.0 12.0 0.00 0.00 0.00 73 1009.9
20260506111325 63 219 5.0 11.0 0.00 0.00 0.00 73 1009.8
20260506110821 63 212 7.0 11.0 0.00 0.00 0.00 73 1010.0
20260506110338 63 183 7.0 12.0 0.00 0.00 0.00 73 1010.1
20260506105900 63 236 3.0 12.0 0.00 0.00 0.00 73 1010.2
20260506105403 63 196 6.0 12.0 0.00 0.00 0.00 73 1010.1
20260506104901 63 183 7.0 12.0 0.00 0.00 0.00 73 1010.0
20260506104336 63 164 5.0 12.0 0.00 0.00 0.00 73 1010.0
20260506103833 63 178 5.0 12.0 0.00 0.00 0.00 73 1010.0
20260506103350 63 199 6.0 13.0 0.00 0.00 0.00 73 1009.9
20260506102914 63 166 7.0 13.0 0.00 0.00 0.00 73 1010.1
20260506102330 63 186 8.0 12.0 0.00 0.00 0.00 73 1009.9
20260506101827 63 207 5.0 11.0 0.00 0.00 0.00 73 1010.0
20260506101325 63 177 5.0 11.0 0.00 0.00 0.00 73 1010.1
20260506100823 63 163 4.0 8.0 0.00 0.00 0.00 73 1010.0
20260506100318 63 196 4.0 10.0 0.00 0.00 0.00 73 1009.9
20260506095834 62 204 2.0 11.0 0.00 0.00 0.00 73 1009.8
20260506095353 62 122 6.0 13.0 0.00 0.00 0.00 73 1009.9
20260506094917 63 122 3.0 13.0 0.00 0.00 0.00 73 1009.8
20260506094352 63 186 4.0 9.0 0.00 0.00 0.00 73 1010.0
20260506093827 63 180 5.0 10.0 0.00 0.00 0.00 72 1010.1
20260506093345 63 201 3.0 10.0 0.00 0.00 0.00 72 1010.1
20260506092821 63 192 5.0 10.0 0.00 0.00 0.00 72 1010.1
20260506092340 63 189 4.0 14.0 0.00 0.00 0.00 72 1010.0
20260506091835 63 155 6.0 9.0 0.00 0.00 0.00 72 1009.9
20260506091333 63 212 3.0 11.0 0.00 0.00 0.00 71 1010.0
20260506090830 63 195 6.0 13.0 0.00 0.00 0.00 71 1010.0
20260506090326 63 173 5.0 10.0 0.00 0.00 0.00 71 1009.9
20260506085905 63 170 6.0 9.0 0.00 0.00 0.00 70 1009.9
20260506085339 63 235 3.0 17.0 0.00 0.00 0.00 70 1009.9
20260506084904 63 224 9.0 17.0 0.00 0.00 0.00 70 1009.9
20260506084406 64 181 3.0 12.0 0.00 0.00 0.00 70 1009.9
20260506083835 64 186 5.0 12.0 0.00 0.00 0.00 70 1009.8
20260506083332 64 199 5.0 11.0 0.00 0.00 0.00 69 1010.0
20260506082850 64 194 3.0 11.0 0.00 0.00 0.00 69 1009.9
20260506082346 64 146 4.0 11.0 0.00 0.00 0.00 69 1009.9
20260506081842 64 215 5.0 11.0 0.00 0.00 0.00 69 1009.8
20260506081338 64 224 6.0 11.0 0.00 0.00 0.00 68 1009.8
20260506080855 64 232 6.0 11.0 0.00 0.00 0.00 68 1009.9
20260506080328 64 170 5.0 15.0 0.00 0.00 0.00 68 1009.7
20260506073322 65 134 6.0 12.0 0.00 0.00 0.00 67 1009.4
20260506072906 65 170 4.0 11.0 0.00 0.00 0.00 66 1009.5
20260506072321 65 156 2.0 16.0 0.00 0.00 0.00 66 1009.4
20260506071907 65 180 7.0 16.0 0.00 0.00 0.00 66 1009.5
20260506071322 65 212 4.0 12.0 0.00 0.00 0.00 66 1009.2
20260506070906 65 201 5.0 12.0 0.00 0.00 0.00 65 1009.3
20260506070339 65 194 4.0 14.0 0.00 0.00 0.00 65 1009.2
20260506062321 65 224 4.0 15.0 0.00 0.00 0.00 64 1008.9
20260506061834 65 159 6.0 14.0 0.00 0.00 0.00 64 1008.9
20260506061353 65 172 5.0 13.0 0.00 0.00 0.00 64 1009.0
20260506060829 65 180 4.0 13.0 0.00 0.00 0.00 64 1008.9